Other Public Products
Issued by NWS Grand Forks, ND

Home | Current Version | Previous Version | Text Only | Print | Product List | Glossary Off
Versions: 1 2 3 4 5 6 7 8 9 10 11 12 13 14 15 16 17 18 19 20 21 22 23 24 25 26 27 28 29 30 31 32 33 34 35 36 37 38 39 40 41 42 43 44 45 46 47 48 49 50

000
FPUS83 KFGF 281010
OPUFGF
PRAIRIE TO PINES WEATHER ROUNDUP
NATIONAL WEATHER SERVICE EASTERN NORTH DAKOTA/GRAND FORKS ND
400 AM CST FRI NOV 28 2014

 **SATELLITE DATA USED TO AUGMENT SKY COVER AT AUTOMATED STATIONS**
 *****  WEATHER ACROSS EASTERN NORTH DAKOTA  *****

CITY           SKY/WX    TMP DP  RH WIND       PRES   REMARKS
GRAND FORKS    CLOUDY    11   6  81 SE14      30.01F WCI  -5
GRAND FORKS AF CLOUDY    10   7  87 SE9       30.00F WCI  -3
GRAND CITY NWS   N/A     10 N/A N/A SE13        N/A  WCI  -5
BUXTON         NOT AVBL
DEVILS LAKE    CLOUDY     9  -2  61 SE14      29.90F WCI  -8
FARGO          CLOUDY    13   6  74 S9        30.03R WCI   1
WAHPETON ARPT  CLOUDY    10   3  72 SE17      30.01S WCI  -7
$$

 *****  WEATHER ACROSS CENTRAL AND WESTERN NORTH DAKOTA  *****

CITY           SKY/WX    TMP DP  RH WIND       PRES   REMARKS
JAMESTOWN      CLOUDY     7   3  84 E10       29.90F WCI  -8
BISMARCK       MOCLDY     9   5  84 E10       29.84F WCI  -5
MINOT          CLOUDY     9   4  80 E12       29.85F WCI  -6
MINOT AFB      CLOUDY     9   5  85 E12       29.86F WCI  -6
GARRISON         N/A     11   8  88 E10       29.81F WCI  -3
WILLISTON      MIX PCPN  19  15  84 E9        29.72F WCI   8
DICKINSON      CLOUDY    21  18  88 NE9       29.69R WCI  11
HETTINGER      CLOUDY    31  27  85 CALM      29.70F
$$

 *****  OTHER OBSERVATIONS NORTHEAST NORTH DAKOTA  *****

CITY           SKY/WX    TMP DP  RH WIND       PRES   REMARKS
WALHALLA       LGT SNOW   7   7 100 E6        30.04F WCI  -3
LANGDON        LGT SNOW   7   3  85 E14       29.93F WCI -10
CAVALIER       CLOUDY     9   5  85 SE3       30.04F
GRAFTON        CLOUDY     9   7  92 E7        30.04F WCI  -3
CANDO          CLOUDY     9   5  85 SE13      29.95R WCI  -7
FORT TOTTEN    NOT AVBL
ROLLA          FLURRIES   7   5  92 SE10      29.91F WCI  -8
RUGBY          CLOUDY     9   3  78 SE9       29.93R WCI  -5
 ***** THE ABOVE OBSERVATIONS ARE NON NWS ARE NOT QUALITY
        CONTROLLED AND MAY MIS-REPORT RAIN FOR SNOW...
$$

 *****  OTHER OBSERVATIONS SOUTHEAST NORTH DAKOTA *****

CITY           SKY/WX    TMP DP  RH WIND       PRES   REMARKS
COOPERSTOWN    NOT AVBL
VALLEY CITY    CLOUDY     9   7  92 SE10      29.95F WCI  -6
OAKES            N/A      5   1  85 E12       29.92F WCI -11
GWINNER        CLOUDY     9   3  78 E10       29.96S WCI  -6
SHEYENNE NWR     N/A      7   1  78 SE6       29.95S WCI  -3
BUFFALO        NOT AVBL
WYNDMERE         N/A      7   3  85 SE7         N/A  WCI  -5
 ***** THE ABOVE OBSERVATIONS ARE NON NWS ARE NOT QUALITY
       CONTROLLED AND MAY MIS-REPORT RAIN FOR SNOW...
$$

  *****  WEATHER ACROSS NORTHERN MINNESOTA  *****

CITY           SKY/WX    TMP DP  RH WIND       PRES   REMARKS
FLAG ISLAND    PTCLDY     3   0  85 CALM      30.08F
WARROAD        CLOUDY     7   1  78 SE5       30.07F WCI  -2
ROSEAU         CLOUDY     9   1  72 SE6       30.06F WCI  -1
HALLOCK        FLURRIES  10   5  79 E7        30.05F WCI   0
THF RVR FALLS  CLOUDY    10   3  72 E9        30.04S WCI  -2
HALSTAD          N/A     12   7  80 SE6         N/A  WCI   2
FOSSTON        CLOUDY     9   3  78 E7        30.00F WCI  -3
BAUDETTE       MOCLDY     4  -2  76 SE3       30.08F
WASKISH        FLURRIES   9   3  78 CALM      30.06F
CROOKSTON      CLOUDY    12   7  79 SE7       30.05S WCI   2
$$
  *****  WEATHER ACROSS CENTRAL AND WEST MINNESOTA  *****

CITY           SKY/WX    TMP DP  RH WIND       PRES   REMARKS
BEMIDJI        CLOUDY     7   2  80 E7        30.04S WCI  -4
PARK RAPIDS    CLOUDY     8   3  80 E6        30.00F WCI  -2
WADENA         FLURRIES   7   1  78 SE9       30.00S WCI  -7
DETROIT LAKES  PTCLDY    10   7  85 SE13      29.98F WCI  -5
MOORHEAD       MIX PCPN  12   9  85 S10       30.03R WCI  -1
FERGUS FALLS   CLOUDY    10   1  67 S12       30.03S WCI  -4
ELBOW LAKE     CLOUDY    10   3  75 SE16G23   29.98F WCI  -8
MORRIS MN      PTCLDY     7   1  78 SE16G24   29.98S WCI -11
STAPLES        CLOUDY     7   3  85 SE7       30.02F WCI  -5
WHEATON        PTCLDY     7   1  78 SE13      30.01R WCI  -9
$$
  *****  WEATHER ELSEWHERE ACROSS MINNESOTA  *****

CITY           SKY/WX    TMP DP  RH WIND       PRES   REMARKS
DULUTH         FLURRIES   6   0  76 SE5       30.10F WCI  -3
INTRNTL FALLS  CLOUDY     5  -2  72 SE5       30.09F WCI  -4
ELY            CLOUDY     5  -2  72 CALM      30.11F
CLOQUET        FLURRIES   7   1  78 SE5       30.11F WCI  -2
BRAINERD       CLOUDY     7   3  84 E5        30.04F WCI  -2
HIBBING        CLOUDY     7  -1  70 SE7       30.10F WCI  -5
ALEXANDRIA     CLOUDY     8   3  80 SE14      29.98F WCI  -8
SAINT CLOUD    CLOUDY    10   4  76 SE10      30.04F WCI  -4
MINNEAPOLIS    CLOUDY    10   6  84 SE12      30.10F WCI  -5
$$

  *****  WEATHER ACROSS SOUTH DAKOTA  *****

CITY           SKY/WX    TMP DP  RH WIND       PRES   REMARKS
SIOUX FALLS    FAIR      18  14  84 SE6       29.89F WCI  10
BROOKINGS      NOT AVBL
WATERTOWN      PTCLDY    13   9  84 SE9       29.86F WCI   1
HURON          PTCLDY    18  14  84 SE7       29.85S WCI   9
SISSETON         N/A      6   2  83 S10       29.96R WCI  -9
ABERDEEN       CLEAR      9   5  84 NE7       29.88F WCI  -2
MITCHELL       CLOUDY    22  17  81 SE9       29.86F WCI  12
PIERRE         CLOUDY    18  15  88 NE6       29.78F WCI  10
MOBRIDGE       MOCLDY    13   8  81 E12       29.77F WCI  -1
RAPID CITY     CLOUDY    34  26  72 E5        29.71F
$$

  *****  SOME WEATHER IN NEARBY STATES *****

CITY           SKY/WX    TMP DP  RH WIND       PRES   REMARKS
GLASGOW MT     PTCLDY    20  16  84 E14       29.64F WCI   7
GREAT FALLS MT MOCLDY    47  34  60 SW17      29.60F
CHEYENNE WY    MOCLDY    52  15  23 W12G23    30.02S
SCOTTSBLUFF NE CLEAR     31  25  78 E6        29.89F
OMAHA NE       PTCLDY    28  22  78 S14       29.98F WCI  17
DES MOINES IA  PTCLDY    20  14  77 SE9       30.09F WCI   9
DAVENPORT IA   CLOUDY    16   8  71 SE14      30.26F WCI   2
CHICAGO IL     CLOUDY    19  11  70 S3        30.34F
EAU CLAIRE WI  LGT SNOW   9   4  80 SE7       30.17F WCI  -2
LA CROSSE WI   LGT SNOW  14   9  80 SE7       30.22F WCI   4
$$

  *****  SOME NATIONAL WEATHER *****

CITY           SKY/WX    TMP DP  RH WIND       PRES   REMARKS
LA GUARDIA NY  PTCLDY    33  24  69 NW14      30.09R WCI  23
RALEIGH NC     CLEAR     30  21  69 CALM      30.30R
ATLANTA GA     CLEAR     29  21  72 NW6       30.36S WCI  23
NEW ORLEANS LA CLEAR     46  36  68 E9        30.42R
OKLAHOMA CITY  MOCLDY    42  26  53 S12       30.16F
ALBUQUERQUE NM PTCLDY    37  20  50 CALM      30.30F
SALT LAKE CITY CLOUDY    46  24  42 E10       30.06F
LOS ANGELES CA CLEAR     59  41  51 CALM      29.99F
BOISE ID       CLOUDY    45  38  76 SE9       29.92F
SEATTLE WA     CLOUDY    54  49  83 S16G24    29.66F
$$

*** WEATHER ACROSS MANITOBA...SASKATCHEWAN AND ONTARIO ***
                ***ONTARIO***

CITY           SKY/WX    TMP DP  RH WIND       PRES   REMARKS
GERALDTON      PTCLDY   -17 -24  70 CALM      30.13F
THUNDER BAY    MOCLDY    -4  -8  84 SW3       30.22F
SIOUX LOOKOUT  CLEAR     -8 -13  77 S6        30.10F WCI -21
TORONTO        PTCLDY    19  14  79 W8        30.21R WCI   9
BIG TROUT LK   CLEAR     -9 -13  84 W7        30.06S WCI -24
PICKLE LAKE    NOT AVBL
DRYDEN         CLEAR     -2  -8  78 SW5       30.09F WCI -12
KENORA         MOCLDY    -2  -8  78 S5        30.07F WCI -12
$$
                *** MANITOBA***

CITY           SKY/WX    TMP DP  RH WIND       PRES   REMARKS
BRANDON        LGT SNOW   9   5  85 E16       29.98F WCI  -9
DAUPHIN        FLURRIES   5   1  85 NE12      30.08F WCI -11
ISLAND LAKE    CLEAR    -11 -18  70 W7        30.14R WCI -26
PILOT MOUND      N/A      7   3  85 E8          N/A  WCI  -6
THE PAS        CLEAR     -9 -15  77 NE5       30.18  WCI -21
THOMPSON       CLEAR    -22 -27  76 W3        30.18S
WINNIPEG       PTCLDY     3  -2  78 E7        30.09F WCI  -9
LYNN LAKE      CLEAR    -20 -26  76 W7        30.14F WCI -37
CHURCHILL      CRYSTALS -13 -18  77 W17G24    30.05S BLWGSNOWWCI -38
GILLAM         CLEAR    -18 -24  76 W10       30.12F WCI -39
$$
                ***SASKATCHEWAN***

CITY           SKY/WX    TMP DP  RH WIND       PRES   REMARKS
ESTEVAN        LGT SNOW   9   3  78 E14       29.83S DRFTSNOWWCI  -8
KINDERSLEY     LGT SNOW   9   3  78 E23       29.67F DRFTSNOWWCI -12
LLOYDMINSTER   LGT SNOW  -2  -8  78 NE18      29.81F WCI -24
PRINCE ALBERT  LGT SNOW  -2  -6  84 E17       30.01F WCI -24
REGINA         LGT SNOW  10   7  85 E15       29.81F DRFTSNOWWCI  -6



USA.gov is the U.S. government's official web portal to all federal, state and local government web resources and services.